Weather History for KFLG - April, 2012

Change the Weather History Date:

Monday, April 23, 2012

  Actual Average Record
Temperature  
Mean Temperature 56 °F 45 °F  
Max Temperature 78 °F 61 °F 78 °F (2012)
Min Temperature 34 °F 30 °F 14 °F (1963)
Degree Days  
Heating Degree Days 9 20  
Month to date heating degree days 465 520  
Since 1 July heating degree days 6002 6227  
Cooling Degree Days 0 0  
Month to date cooling degree days 0 0  
Year to date cooling degree days 0 0  
Growing Degree Days 5 (Base 50)    
Moisture  
Dew Point 25 °F    
Average Humidity 43    
Maximum Humidity 75    
Minimum Humidity 10    
Precipitation  
Precipitation 0.00 in 0.03 in 0.45 in (1960)
Month to date precipitation 0.66 0.95  
Year to date precipitation 3.88 7.28  
Snow  
Snow 0.00 in 0.20 in 3.20 in (1900)
Month to date snowfall 10.0 5.8  
Since 1 July snowfall 102.5 99.7  
Snow Depth 0.00 in    
Sea Level Pressure  
Sea Level Pressure 29.99 in    
Wind  
Wind Speed 7 mph (SSW)    
Max Wind Speed 26 mph    
Max Gust Speed 38 mph    
Visibility 10 miles    
Events      
T = Trace of Precipitation, MM = Missing Value Source: NWS Daily Summary

Daily Weather History Graph

Daily Weather History Graph

Search for Another Location

Airport or City:

Trip Planner

Search our weather history database for the weather conditions in past years. The results will help you decide how hot, cold, wet, or windy it might be!

Date:

Astronomy

Apr. 23, 2012 Rise Set
Actual Time 5:43 AM MST 7:06 PM MST
Civil Twilight 5:17 AM MST 7:33 PM MST
Nautical Twilight 4:45 AM MST 8:04 PM MST
Astronomical Twilight 4:12 AM MST 8:38 PM MST
Moon 7:02 AM MST (4/23) 9:33 PM MST (4/23)
Length of Visible Light 14h 15m
Length of Day
13h 22m
Waxing Crescent, 5% of the Moon is Illuminated
Apr 23
Waxing Crescent
Apr 29
First Quarter
May 5
Full
May 12
Last Quarter
May 20
New

Hourly Weather History & Observations

Time (MST) Temp. Dew Point Humidity Pressure Visibility Wind Dir Wind Speed Gust Speed Precip Events Conditions
12:57 AM 42.1 °F 28.0 °F 58% 30.04 in 10.0 mi Calm Calm - N/A   Clear
1:57 AM 41.0 °F 27.0 °F 57% 30.01 in 10.0 mi Calm Calm - N/A   Clear
2:57 AM 39.9 °F 27.0 °F 60% 30.01 in 10.0 mi Calm Calm - N/A   Clear
3:57 AM 37.9 °F 26.1 °F 62% 29.99 in 10.0 mi Calm Calm - N/A   Clear
4:57 AM 37.4 °F 32.0 °F 81% - 10.0 mi Calm Calm - N/A   Clear
5:57 AM 33.8 °F 26.6 °F 75% 30.25 in 10.0 mi Calm Calm - N/A   Clear
6:57 AM 44.1 °F 32.0 °F 63% 30.03 in 10.0 mi Calm Calm - N/A   Clear
7:57 AM 61.0 °F 30.0 °F 31% 29.99 in 10.0 mi Calm Calm - N/A   Clear
8:57 AM 70.0 °F 28.0 °F 21% 29.99 in 10.0 mi East 5.8 mph - N/A   Clear
9:57 AM 72.0 °F 30.0 °F 21% 30.01 in 10.0 mi SW 9.2 mph - N/A   Clear
10:57 AM 73.9 °F 26.1 °F 17% 30.01 in 10.0 mi SW 16.1 mph 20.7 mph N/A   Clear
11:57 AM 75.0 °F 25.0 °F 16% 29.99 in 10.0 mi SSW 12.7 mph 21.9 mph N/A   Clear
12:57 PM 77.0 °F 17.1 °F 10% 29.98 in 10.0 mi SSW 18.4 mph 25.3 mph N/A   Clear
1:57 PM 77.0 °F 21.9 °F 13% 29.98 in 10.0 mi South 13.8 mph 31.1 mph N/A   Clear
2:57 PM 75.9 °F 19.9 °F 12% 29.96 in 10.0 mi SSW 16.1 mph 28.8 mph N/A   Clear
3:57 PM 75.9 °F 19.9 °F 12% 29.95 in 10.0 mi SSW 23.0 mph 29.9 mph N/A   Clear
4:57 PM 73.9 °F 21.0 °F 14% 29.95 in 10.0 mi South 15.0 mph 20.7 mph N/A   Clear
5:57 PM 70.0 °F 24.1 °F 18% 29.98 in 10.0 mi SSW 17.3 mph 27.6 mph N/A   Clear
6:57 PM 64.9 °F 24.1 °F 21% 29.97 in 10.0 mi SSW 8.1 mph - N/A   Clear
7:57 PM 62.1 °F 21.9 °F 21% 29.93 in 10.0 mi West 3.5 mph - N/A   Clear
8:57 PM 57.9 °F 24.1 °F 27% 29.91 in 10.0 mi Calm Calm - N/A   Clear
9:57 PM 57.0 °F 26.1 °F 30% 29.92 in 10.0 mi SW 6.9 mph - N/A   Clear
10:57 PM 52.0 °F 26.1 °F 37% 29.93 in 10.0 mi Calm Calm - N/A   Clear
11:57 PM 46.0 °F 26.1 °F 46% 29.95 in 10.0 mi Calm Calm - N/A   Clear